This is the latest recevied weather packets stored in our database for station/object W9QL-13. If no packets are shown the sender has not sent any weather packets the latest 10 day(s).
| Time | Temp. | Humidity | Pressure | Rain* | Wind** | Luminosity | Snow |
|---|---|---|---|---|---|---|---|
| 1777650125 | 8.89° C | 60% | 1015.6 hPa | 0 mm | - | - | - |
| 1777649825 | 8.89° C | 62% | 1015.6 hPa | 0 mm | - | - | - |
| 1777649495 | 8.33° C | 63% | 1015.6 hPa | 0 mm | - | - | - |
| 1777649195 | 8.89° C | 60% | 1015.6 hPa | 0 mm | - | - | - |
| 1777648865 | 8.89° C | 60% | 1015.6 hPa | 0 mm | - | - | - |
| 1777648265 | 8.33° C | 62% | 1015.7 hPa | 0 mm | - | - | - |
| 1777647935 | 8.89° C | 62% | 1015.7 hPa | 0 mm | - | - | - |
| 1777647605 | 8.89° C | 64% | 1015.6 hPa | 0 mm | - | - | - |
| 1777647305 | 8.89° C | 67% | 1015.6 hPa | 0 mm | - | - | - |
| 1777647005 | 8.33° C | 67% | 1015.7 hPa | 0 mm | - | - | - |
| 1777646705 | 7.78° C | 72% | 1015.7 hPa | 0 mm | - | - | - |
| 1777646405 | 7.22° C | 74% | 1015.7 hPa | 0 mm | - | - | - |
| 1777646075 | 7.22° C | 75% | 1015.7 hPa | 0 mm | - | - | - |
| 1777645775 | 7.78° C | 78% | 1015.7 hPa | 0 mm | - | - | - |
| 1777645476 | 7.22° C | 80% | 1015.7 hPa | 0 mm | - | - | - |
| 1777645145 | 7.22° C | 83% | 1015.7 hPa | 0 mm | - | - | - |
| 1777644845 | 7.22° C | 84% | 1015.8 hPa | 0 mm | - | - | - |
| 1777644545 | 7.22° C | 86% | 1015.7 hPa | 0 mm | - | - | - |
| 1777644215 | 6.67° C | 87% | 1015.8 hPa | 0 mm | - | - | - |
| 1777643915 | 6.67° C | 88% | 1015.8 hPa | 0 mm | - | - | - |
| 1777643615 | 6.11° C | 88% | 1015.7 hPa | 0 mm | - | - | - |
| 1777643285 | 6.11° C | 88% | 1015.7 hPa | 0 mm | - | - | - |
| 1777642985 | 5.56° C | 88% | 1015.8 hPa | 0 mm | - | - | - |
| 1777642685 | 5.56° C | 88% | 1015.8 hPa | 0 mm | - | - | - |
| 1777642355 | 5.56° C | 88% | 1015.7 hPa | 0 mm | - | - | - |
* Rain latest hour (hover to see other rain measurements)
** Current wind speed in m/s (hover to see current wind gust speed)